Hourly Data Report for May 29, 2012

All times are specified in Local Standard Time (LST). Add 1 hour to adjust for Daylight Saving Time where and when it is observed.

OTTAWA INTL A
ONTARIO

45°19'00.000" N
75°40'00.000" W
114.90 m
6106001
71628
YOW

Download Data

Hourly Data (May 2012)
Hourly Data Report for May 29, 2012
Temp Definition
°C
Dew Point Temp Definition
°C
Rel Hum Definition
%
Wind Dir Definition
10's deg

Wind Spd Definition
km/h
Visibility Definition
km
Stn Press Definition
kPa
Hmdx Definition


Wind Chill Definition


Weather Definition


TIME
00:00 Legend Double Dagger 12.5 8.2 75 8 14 10.0 99.38     LegendNANA
01:00 Legend Double Dagger 11.1 8.2 82 4 10 10.0 99.37     Mainly Clear
02:00 Legend Double Dagger 11.6 8.5 81 6 9 10.0 99.24     LegendNANA
03:00 Legend Double Dagger 11.7 8.0 78 2 18 10.0 99.23     LegendNANA
04:00 Legend Double Dagger 11.0 8.1 82 5 14 10.0 99.19     Mainly Clear
05:00 Legend Double Dagger 11.0 8.3 83 5 11 10.0 99.25     LegendNANA
06:00 Legend Double Dagger 12.1 9.2 82 6 12 10.0 99.17     LegendNANA
07:00 Legend Double Dagger 14.6 10.7 77 12 12 10.0 99.15     Clear
08:00 Legend Double Dagger 18.0 12.9 72 14 9 10.0 99.13     LegendNANA
09:00 Legend Double Dagger 21.0 16.5 75   0 10.0 99.11 26   LegendNANA
10:00 Legend Double Dagger 24.9 18.5 67 21 11 10.0 99.06 31   Mainly Clear
11:00 Legend Double Dagger 26.9 20.6 68 10 7 10.0 99.03 35   LegendNANA
12:00 Legend Double Dagger 29.0 21.7 64 9 8 10.0 98.93 38   LegendNANA
13:00 Legend Double Dagger 32.3 19.1 45 24 18 10.0 98.74 39   Mostly Cloudy
14:00 Legend Double Dagger 30.9 18.9 48 30 13 10.0 98.67 38   Thunderstorms
15:00 Legend Double Dagger 22.0 17.4 75 18 18 10.0 98.70 28   Thunderstorms,Rain Showers
16:00 Legend Double Dagger 22.3 19.7 85 16 14 10.0 98.74 30   Mostly Cloudy
17:00 Legend Double Dagger 23.2 19.0 77 17 15 10.0 98.68 30   LegendNANA
18:00 Legend Double Dagger 23.4 19.6 79 19 13 10.0 98.70 31   LegendNANA
19:00 Legend Double Dagger 22.9 19.9 83 20 18 10.0 98.74 30   Cloudy
20:00 Legend Double Dagger 21.1 17.4 79 23 14 10.0 98.79 27   LegendNANA
21:00 Legend Double Dagger 20.0 17.8 87 22 13 10.0 98.84 26   LegendNANA
22:00 Legend Double Dagger 20.2 12.5 61 26 23 10.0 98.92     Cloudy
23:00 Legend Double Dagger 18.8 8.6 51 27 16 10.0 99.01     LegendNANA

Notes on Data Quality.

Legend

  • E = Estimated
  • M = Missing
  • NA = Not Available
  • ‡ = Partner data that is not subject to review by the National Climate Archives
Date modified: